星链-3944 (STARLINK-3944 )

导读

STARLINK-3944是美国SpaceX公司星链(Starlink)星座中的一颗卫星,于2022年5月13日发射入轨。星链旨在搭建全球卫星互联网,为全球多地提供高速低延迟网络服务,该卫星是星链大规模组网进程中的组成单元,服务于项目的全球互联网覆盖目标建设。

Basic Information
目录编号:
52544
目录名称:
STARLINK-3944
国际标识:
2022-051M
轨道中心:
EARTH
卫星名称:
星链-3944
卫星全名:
星链-3944 (STARLINK-3944 )
卫星状态:
在轨 (已飞行1496 天)
发射日期:
2022-05-13 UTC
国别 :
美国 (US)
星等 :
--
Orbit Information
数据来源 国际轨道数据 AOE轨道数据
星历时间 2026-06-17T06:32:18+0800
16小时前
查看轨道信息
2026-06-14T23:00:00+0800
3天前
查看轨道信息
半长轴 6917.906km 6917.869km
偏心率 0.0001419 0.0001551
轨道倾角 53.159° 53.161°
近地点辐角 92.881° 117.273°
升交点赤经 48.489° 58.894°
平近点角 267.235° 266.269°
近地点 538.787km 538.659km
远地点 540.751km 540.805km
周期 95.438分钟 95.437分钟
每日圈数 15.088319 15.088438
Detailed Information
固有亮度:
5
最大亮度:
2.5
卫星平台:
Starlink v1.5
覆盖范围:
全球
运营商:
太空探索技术公司
运营商所在国:
美国
制造商(研发单位):
太空探索技术公司
制造商所在国:
美国
使用方式:
暂无
Satellite Introduction
星链(Starlink)计划是由太空探索技术公司(SpaceX)提出的一个巨型低轨卫星互联网星座项目,计划在2019年至2024年间在太空搭建由约1.2万颗卫星组成的“星链”网络,其中1584颗将部署在地球上空550千米处的近地轨道,并从2020年开始工作。该卫星仍在工作。
2D Orbit Map
3D Orbit Map
Orbit Altitude Analysis Chart
Orbit Inclination Analysis Chart
Orbit Comprehensive Analysis Chart
View Comprehensive Chart